UAE344 OMDB-WMKK

Flight info

Callsign UAE344
Flight time N/A
Altitude 37000
Route IVURO M677 LALDO B505 NADSO A777 VAXIM P307 PARAR N571 IDASO/N0494F390 N571 GUNIP Y347 KAKAK KAKAK3J
Aircraft A388/J-SADE2E3FGHIJ3J4J5M1RWXY/LB1D1

Departure

Time N/A
Airport Dubai International Airport (OMDB)

Arrival

Time 2026-05-04 02:30
Airport Kuala Lumpur International Airport (WMKK)
Time Latitude Longitude Altitude Speed Heading
2026-05-03 22:04 18.74065 71.09489 36801 ft 504 kts 117°
2026-05-03 22:05 18.70938 71.16119 36803 ft 505 kts 117°
2026-05-03 22:05 18.67854 71.22650 36810 ft 505 kts 117°
2026-05-03 22:06 18.64720 71.29287 36808 ft 505 kts 117°
2026-05-03 22:06 18.61591 71.35907 36801 ft 504 kts 117°
2026-05-03 22:07 18.58454 71.42521 36804 ft 504 kts 117°
2026-05-03 22:07 18.55319 71.49135 36805 ft 504 kts 117°
2026-05-03 22:08 18.52191 71.55729 36797 ft 502 kts 117°
2026-05-03 22:08 18.49066 71.62309 36790 ft 502 kts 117°
2026-05-03 22:09 18.45935 71.68890 36798 ft 503 kts 117°
2026-05-03 22:10 18.41249 71.78729 36799 ft 503 kts 117°
2026-05-03 22:10 18.38105 71.85320 36812 ft 505 kts 117°
2026-05-03 22:11 18.34955 71.91924 36831 ft 505 kts 117°
2026-05-03 22:11 18.31790 71.98541 36797 ft 505 kts 117°
2026-05-03 22:12 18.28636 72.05141 36793 ft 504 kts 117°
2026-05-03 22:12 18.25483 72.11722 36787 ft 504 kts 117°
2026-05-03 22:13 18.22325 72.18303 36775 ft 502 kts 117°
2026-05-03 22:13 18.19178 72.24850 36769 ft 502 kts 117°
2026-05-03 22:14 18.16030 72.31400 36763 ft 502 kts 117°
2026-05-03 22:14 18.12878 72.37949 36772 ft 501 kts 117°
2026-05-03 22:15 18.09733 72.44483 36776 ft 502 kts 117°
2026-05-03 22:15 18.06572 72.51041 36782 ft 502 kts 117°
2026-05-03 22:16 18.03413 72.57587 36782 ft 502 kts 117°
2026-05-03 22:16 18.00268 72.64096 36786 ft 503 kts 117°
2026-05-03 22:17 17.97098 72.70651 36800 ft 503 kts 117°
2026-05-03 22:17 17.93933 72.77191 36797 ft 502 kts 117°
2026-05-03 22:18 17.91276 72.82673 36794 ft 502 kts 117°
2026-05-03 22:18 17.88133 72.89154 36788 ft 501 kts 117°
2026-05-03 22:19 17.84974 72.95659 36781 ft 500 kts 117°
2026-05-03 22:19 17.81822 73.02152 36777 ft 500 kts 118°
2026-05-03 22:20 17.78659 73.08651 36788 ft 499 kts 118°
2026-05-03 22:20 17.75496 73.15145 36792 ft 500 kts 118°
2026-05-03 22:21 17.72337 73.21629 36793 ft 499 kts 118°
2026-05-03 22:21 17.69168 73.28115 36791 ft 499 kts 118°
2026-05-03 22:22 17.65999 73.34588 36790 ft 499 kts 118°
2026-05-03 22:22 17.62836 73.41058 36789 ft 499 kts 118°
2026-05-03 22:23 17.59663 73.47531 36796 ft 500 kts 118°
2026-05-03 22:23 17.56483 73.54014 36799 ft 500 kts 118°
2026-05-03 22:24 17.53306 73.60487 36811 ft 500 kts 118°
2026-05-03 22:24 17.50124 73.66965 36807 ft 500 kts 118°
2026-05-03 22:25 17.46938 73.73444 36814 ft 500 kts 118°
2026-05-03 22:25 17.43746 73.79924 36820 ft 500 kts 118°
2026-05-03 22:26 17.40572 73.86366 36836 ft 501 kts 118°
2026-05-03 22:26 17.37375 73.92845 36816 ft 500 kts 118°
2026-05-03 22:27 17.34188 73.99302 36831 ft 499 kts 118°
2026-05-03 22:27 17.31001 74.05750 36820 ft 497 kts 118°
2026-05-03 22:28 17.27817 74.12180 36808 ft 498 kts 118°
2026-05-03 22:28 17.24632 74.18611 36804 ft 498 kts 118°
2026-05-03 22:29 17.21443 74.25042 36814 ft 498 kts 118°
2026-05-03 22:29 17.18254 74.31474 36815 ft 498 kts 118°
2026-05-03 22:30 17.15061 74.37907 36806 ft 498 kts 118°
2026-05-03 22:30 17.11877 74.44320 36808 ft 498 kts 118°
2026-05-03 22:31 17.08676 74.50757 36832 ft 499 kts 118°
2026-05-03 22:31 17.05471 74.57197 36832 ft 500 kts 118°
2026-05-03 22:32 17.02263 74.63635 36813 ft 499 kts 118°
2026-05-03 22:32 16.99062 74.70062 36814 ft 499 kts 118°
2026-05-03 22:33 16.95848 74.76497 36819 ft 500 kts 118°
2026-05-03 22:33 16.92629 74.82938 36832 ft 500 kts 118°
2026-05-03 22:34 16.89410 74.89374 36828 ft 500 kts 118°
2026-05-03 22:34 16.86214 74.95763 36837 ft 500 kts 118°
2026-05-03 22:34 16.84576 74.99031 37140 ft 501 kts 118°
2026-05-03 22:35 16.82981 75.02211 37551 ft 501 kts 118°
2026-05-03 22:35 16.81364 75.05436 37927 ft 500 kts 118°
2026-05-03 22:35 16.79755 75.08643 38275 ft 500 kts 118°
2026-05-03 22:35 16.78141 75.11857 38607 ft 500 kts 118°
2026-05-03 22:36 16.76523 75.15076 38822 ft 503 kts 118°
2026-05-03 22:36 16.73298 75.21498 38842 ft 495 kts 118°
2026-05-03 22:37 16.70089 75.27874 38842 ft 497 kts 118°
2026-05-03 22:37 16.66873 75.34264 38841 ft 498 kts 118°
2026-05-03 22:38 16.63656 75.40646 38840 ft 496 kts 118°
2026-05-03 22:38 16.60437 75.47030 38848 ft 497 kts 118°
2026-05-03 22:39 16.57397 75.53503 38848 ft 497 kts 116°
2026-05-03 22:39 16.54437 75.60015 38850 ft 497 kts 116°
2026-05-03 22:40 16.51452 75.66505 38847 ft 496 kts 116°
2026-05-03 22:40 16.48444 75.72988 38850 ft 497 kts 116°
2026-05-03 22:41 16.45429 75.79481 38852 ft 498 kts 116°
2026-05-03 22:41 16.42411 75.85976 38873 ft 498 kts 116°
2026-05-03 22:42 16.39413 75.92428 38861 ft 498 kts 116°
2026-05-03 22:42 16.36395 75.98914 38862 ft 498 kts 116°
2026-05-03 22:43 16.33361 76.05391 38869 ft 497 kts 116°
2026-05-03 22:43 16.30309 76.11852 38872 ft 497 kts 116°
2026-05-03 22:44 16.27262 76.18302 38863 ft 496 kts 116°
2026-05-03 22:44 16.24236 76.24710 38862 ft 496 kts 116°
2026-05-03 22:45 16.21194 76.31153 38860 ft 496 kts 116°
2026-05-03 22:45 16.18145 76.37599 38873 ft 497 kts 116°
2026-05-03 22:46 16.15088 76.44047 38879 ft 497 kts 116°
2026-05-03 22:46 16.12036 76.50495 38878 ft 497 kts 116°
2026-05-03 22:47 16.08977 76.56953 38887 ft 498 kts 116°
2026-05-03 22:47 16.05915 76.63398 38877 ft 497 kts 116°
2026-05-03 22:48 16.02852 76.69844 38883 ft 496 kts 117°
2026-05-03 22:48 15.99792 76.76273 38882 ft 496 kts 117°
2026-05-03 22:49 15.96732 76.82700 38891 ft 496 kts 117°
2026-05-03 22:49 15.93672 76.89123 38887 ft 496 kts 117°
2026-05-03 22:50 15.90619 76.95524 38880 ft 494 kts 117°
2026-05-03 22:50 15.87560 77.01928 38883 ft 495 kts 117°
2026-05-03 22:51 15.84500 77.08329 38890 ft 495 kts 117°
2026-05-03 22:51 15.81436 77.14738 38899 ft 495 kts 117°
2026-05-03 22:52 15.78371 77.21145 38896 ft 495 kts 117°
2026-05-03 22:52 15.75322 77.27504 38902 ft 495 kts 117°
2026-05-03 22:53 15.72249 77.33907 38895 ft 496 kts 117°
2026-05-03 22:53 15.69185 77.40327 38898 ft 496 kts 117°
2026-05-03 22:54 15.66133 77.46750 38902 ft 496 kts 117°
2026-05-03 22:54 15.63085 77.53158 38901 ft 495 kts 117°
2026-05-03 22:55 15.60031 77.59562 38896 ft 495 kts 117°
2026-05-03 22:55 15.56972 77.65959 38902 ft 495 kts 117°
2026-05-03 22:56 15.53915 77.72356 38915 ft 495 kts 117°
2026-05-03 22:56 15.50850 77.78766 38900 ft 495 kts 117°
2026-05-03 22:57 15.47812 77.85115 38897 ft 495 kts 117°
2026-05-03 22:57 15.44751 77.91504 38902 ft 494 kts 117°
2026-05-03 22:58 15.41689 77.97884 38894 ft 494 kts 117°
2026-05-03 22:58 15.38627 78.04267 38893 ft 494 kts 117°
2026-05-03 22:59 15.35565 78.10643 38892 ft 494 kts 117°
2026-05-03 22:59 15.32476 78.16981 38880 ft 492 kts 117°
2026-05-03 23:00 15.29372 78.23309 38884 ft 493 kts 117°
2026-05-03 23:00 15.26272 78.29647 38893 ft 494 kts 117°
2026-05-03 23:01 15.23165 78.36002 38901 ft 494 kts 117°
2026-05-03 23:01 15.20580 78.41281 38895 ft 494 kts 117°
2026-05-03 23:02 15.17464 78.47634 38903 ft 495 kts 117°
2026-05-03 23:02 15.14349 78.53981 38904 ft 495 kts 117°
2026-05-03 23:03 15.11229 78.60337 38903 ft 495 kts 117°
2026-05-03 23:03 15.08107 78.66690 38896 ft 494 kts 117°
2026-05-03 23:04 15.04990 78.73021 38877 ft 493 kts 117°
2026-05-03 23:04 15.01878 78.79341 38881 ft 493 kts 117°
2026-05-03 23:05 14.98781 78.85635 38892 ft 495 kts 117°
2026-05-03 23:05 14.95634 78.92016 38895 ft 495 kts 117°
2026-05-03 23:06 14.92504 78.98352 38892 ft 495 kts 117°
2026-05-03 23:06 14.89395 79.04652 38887 ft 495 kts 117°
2026-05-03 23:07 14.86260 79.10991 38883 ft 497 kts 118°
2026-05-03 23:07 14.83113 79.17348 38902 ft 497 kts 117°
2026-05-03 23:08 14.79965 79.23707 38892 ft 496 kts 118°
2026-05-03 23:08 14.76825 79.30041 38874 ft 494 kts 118°
2026-05-03 23:09 14.73686 79.36372 38871 ft 494 kts 118°
2026-05-03 23:09 14.70557 79.42672 38855 ft 492 kts 118°
2026-05-03 23:10 14.67429 79.48970 38848 ft 492 kts 118°
2026-05-03 23:10 14.64295 79.55267 38854 ft 494 kts 118°
2026-05-03 23:11 14.61156 79.61582 38854 ft 493 kts 118°
2026-05-03 23:11 14.58041 79.67834 38857 ft 493 kts 118°
2026-05-03 23:12 14.54907 79.74116 38850 ft 493 kts 118°
2026-05-03 23:12 14.51765 79.80417 38848 ft 493 kts 118°
2026-05-03 23:13 14.48624 79.86708 38854 ft 494 kts 118°
2026-05-03 23:13 14.45479 79.93000 38842 ft 493 kts 118°
2026-05-03 23:14 14.42330 79.99293 38847 ft 494 kts 118°
2026-05-03 23:14 14.39197 80.05551 38854 ft 495 kts 118°
2026-05-03 23:15 14.36036 80.11857 38852 ft 495 kts 118°
2026-05-03 23:15 14.32872 80.18169 38850 ft 496 kts 118°
2026-05-03 23:16 14.29704 80.24487 38828 ft 496 kts 118°
2026-05-03 23:16 14.26535 80.30796 38826 ft 496 kts 118°
2026-05-03 23:17 14.23363 80.37104 38821 ft 495 kts 118°
2026-05-03 23:17 14.20197 80.43403 38819 ft 494 kts 118°
2026-05-03 23:18 14.17033 80.49684 38811 ft 493 kts 118°
2026-05-03 23:18 14.13873 80.55955 38801 ft 492 kts 118°
2026-05-03 23:19 14.10717 80.62214 38811 ft 492 kts 118°
2026-05-03 23:19 14.07559 80.68475 38804 ft 493 kts 118°
2026-05-03 23:20 14.04393 80.74742 38810 ft 493 kts 118°
2026-05-03 23:20 14.01231 80.81005 38812 ft 493 kts 118°
2026-05-03 23:21 13.98116 80.87251 38817 ft 493 kts 117°
2026-05-03 23:21 13.95065 80.93574 38804 ft 493 kts 117°
2026-05-03 23:22 13.90469 81.03050 38808 ft 493 kts 117°
2026-05-03 23:22 13.87400 81.09355 38811 ft 493 kts 117°
2026-05-03 23:23 13.84319 81.15674 38822 ft 494 kts 117°
2026-05-03 23:23 13.81239 81.21990 38827 ft 493 kts 117°
2026-05-03 23:24 13.78162 81.28294 38822 ft 492 kts 117°
2026-05-03 23:24 13.75085 81.34594 38818 ft 492 kts 117°
2026-05-03 23:25 13.72016 81.40867 38808 ft 491 kts 117°
2026-05-03 23:25 13.68949 81.47139 38810 ft 491 kts 117°
2026-05-03 23:26 13.65914 81.53359 38795 ft 489 kts 117°
2026-05-03 23:26 13.62862 81.59615 38801 ft 490 kts 117°
2026-05-03 23:27 13.59802 81.65884 38814 ft 491 kts 117°
2026-05-03 23:27 13.56734 81.72155 38816 ft 491 kts 117°
2026-05-03 23:28 13.53662 81.78430 38817 ft 492 kts 117°
2026-05-03 23:28 13.50590 81.84700 38820 ft 492 kts 117°
2026-05-03 23:29 13.47505 81.90991 38828 ft 493 kts 117°
2026-05-03 23:29 13.44428 81.97264 38822 ft 492 kts 117°
2026-05-03 23:30 13.41347 82.03545 38823 ft 492 kts 117°
2026-05-03 23:30 13.38271 82.09807 38816 ft 491 kts 117°
2026-05-03 23:31 13.35193 82.16068 38814 ft 491 kts 117°
2026-05-03 23:31 13.32135 82.22282 38810 ft 490 kts 117°
2026-05-03 23:32 13.29063 82.28521 38801 ft 489 kts 117°
2026-05-03 23:32 13.25986 82.34762 38804 ft 491 kts 117°
2026-05-03 23:33 13.22902 82.41017 38806 ft 491 kts 117°
2026-05-03 23:33 13.19821 82.47264 38822 ft 491 kts 117°
2026-05-03 23:34 13.16733 82.53516 38825 ft 491 kts 117°
2026-05-03 23:34 13.13644 82.59771 38826 ft 492 kts 117°
2026-05-03 23:35 13.10548 82.66030 38835 ft 492 kts 117°
2026-05-03 23:35 13.07441 82.72299 38837 ft 493 kts 117°
2026-05-03 23:36 13.04339 82.78563 38841 ft 492 kts 117°
2026-05-03 23:36 13.01231 82.84831 38843 ft 492 kts 117°
2026-05-03 23:37 12.98127 82.91090 38831 ft 493 kts 117°
2026-05-03 23:37 12.95018 82.97352 38804 ft 491 kts 118°
2026-05-03 23:38 12.91937 83.03553 38792 ft 492 kts 118°
2026-05-03 23:38 12.88813 83.09836 38792 ft 492 kts 118°
2026-05-03 23:39 12.85706 83.16085 38801 ft 492 kts 118°
2026-05-03 23:39 12.82614 83.22295 38801 ft 493 kts 118°
2026-05-03 23:40 12.79495 83.28554 38804 ft 493 kts 118°
2026-05-03 23:40 12.76373 83.34819 38811 ft 494 kts 118°
2026-05-03 23:41 12.73245 83.41088 38818 ft 494 kts 118°
2026-05-03 23:41 12.70114 83.47359 38818 ft 494 kts 118°
2026-05-03 23:42 12.66986 83.53618 38816 ft 494 kts 118°
2026-05-03 23:42 12.63886 83.59910 38815 ft 494 kts 117°
2026-05-03 23:43 12.60870 83.66228 38817 ft 494 kts 117°
2026-05-03 23:43 12.57839 83.72552 38823 ft 495 kts 117°
2026-05-03 23:44 12.54797 83.78878 38818 ft 495 kts 117°
2026-05-03 23:44 12.51753 83.85204 38824 ft 495 kts 117°
2026-05-03 23:45 12.48711 83.91520 38812 ft 494 kts 117°
2026-05-03 23:45 12.45664 83.97832 38817 ft 495 kts 117°
2026-05-03 23:46 12.42634 84.04105 38819 ft 495 kts 117°
2026-05-03 23:46 12.39569 84.10448 38810 ft 494 kts 117°
2026-05-03 23:47 12.36527 84.16748 38807 ft 494 kts 117°
2026-05-03 23:47 12.33483 84.23039 38811 ft 494 kts 117°
2026-05-03 23:48 12.30427 84.29348 38813 ft 494 kts 117°
2026-05-03 23:48 12.27398 84.35604 38814 ft 495 kts 117°
2026-05-03 23:49 12.24860 84.40838 38808 ft 494 kts 117°
2026-05-03 23:49 12.21812 84.47126 38805 ft 493 kts 117°
2026-05-03 23:50 12.18762 84.53406 38810 ft 494 kts 117°
2026-05-03 23:50 12.15705 84.59696 38814 ft 494 kts 117°
2026-05-03 23:51 12.12644 84.66002 38819 ft 495 kts 117°
2026-05-03 23:51 12.09583 84.72295 38813 ft 494 kts 117°
2026-05-03 23:52 12.06522 84.78581 38825 ft 494 kts 117°
2026-05-03 23:52 12.03459 84.84868 38826 ft 494 kts 117°
2026-05-03 23:53 12.00400 84.91149 38824 ft 493 kts 117°
2026-05-03 23:53 11.97340 84.97422 38829 ft 493 kts 117°
2026-05-03 23:54 11.94276 85.03698 38834 ft 494 kts 117°
2026-05-03 23:54 11.91208 85.09976 38833 ft 493 kts 117°
2026-05-03 23:55 11.88150 85.16235 38827 ft 492 kts 117°
2026-05-03 23:55 11.85093 85.22487 38826 ft 492 kts 117°
2026-05-03 23:56 11.82051 85.28695 38809 ft 491 kts 117°
2026-05-03 23:56 11.79004 85.34930 38812 ft 491 kts 117°
2026-05-03 23:57 11.75948 85.41161 38817 ft 491 kts 117°
2026-05-03 23:57 11.72891 85.47395 38817 ft 491 kts 117°
2026-05-03 23:58 11.69835 85.53618 38826 ft 491 kts 118°
2026-05-03 23:58 11.66784 85.59836 38820 ft 490 kts 118°
2026-05-03 23:59 11.63731 85.66047 38819 ft 490 kts 118°
2026-05-03 23:59 11.60665 85.72280 38829 ft 491 kts 118°
2026-05-04 00:00 11.57599 85.78512 38846 ft 492 kts 118°
2026-05-04 00:00 11.54523 85.84761 38850 ft 493 kts 118°
2026-05-04 00:01 11.51446 85.91005 38861 ft 493 kts 118°
2026-05-04 00:01 11.48375 85.97232 38854 ft 492 kts 118°
2026-05-04 00:02 11.45304 86.03470 38856 ft 492 kts 118°
2026-05-04 00:02 11.42225 86.09700 38852 ft 491 kts 118°
2026-05-04 00:03 11.39150 86.15922 38856 ft 492 kts 118°
2026-05-04 00:03 11.36078 86.22135 38849 ft 491 kts 118°
2026-05-04 00:04 11.33022 86.28317 38856 ft 491 kts 118°
2026-05-04 00:04 11.29928 86.34569 38856 ft 491 kts 118°
2026-05-04 00:05 11.26867 86.40753 38855 ft 491 kts 118°
2026-05-04 00:05 11.23790 86.46961 38856 ft 491 kts 118°
2026-05-04 00:06 11.20710 86.53172 38855 ft 491 kts 118°
2026-05-04 00:06 11.17633 86.59376 38854 ft 490 kts 118°
2026-05-04 00:07 11.14557 86.65573 38850 ft 490 kts 118°
2026-05-04 00:07 11.11483 86.71758 38845 ft 489 kts 118°
2026-05-04 00:08 11.08413 86.77928 38839 ft 489 kts 118°
2026-05-04 00:08 11.05340 86.84109 38844 ft 489 kts 118°
2026-05-04 00:09 11.02263 86.90296 38853 ft 490 kts 118°
2026-05-04 00:09 10.99184 86.96485 38861 ft 491 kts 118°
2026-05-04 00:10 10.96115 87.02647 38870 ft 491 kts 118°
2026-05-04 00:10 10.93022 87.08844 38863 ft 491 kts 118°
2026-05-04 00:11 10.89939 87.15023 38862 ft 490 kts 118°
2026-05-04 00:11 10.86850 87.21209 38861 ft 490 kts 118°
2026-05-04 00:12 10.83756 87.27405 38850 ft 491 kts 118°
2026-05-04 00:12 10.80659 87.33600 38855 ft 491 kts 118°
2026-05-04 00:13 10.77556 87.39804 38858 ft 492 kts 118°
2026-05-04 00:13 10.74455 87.46003 38860 ft 492 kts 118°
2026-05-04 00:14 10.71350 87.52205 38859 ft 492 kts 118°
2026-05-04 00:14 10.68241 87.58407 38858 ft 492 kts 118°
2026-05-04 00:15 10.65156 87.64560 38859 ft 492 kts 118°
2026-05-04 00:15 10.62049 87.70754 38863 ft 492 kts 118°
2026-05-04 00:16 10.58927 87.76970 38869 ft 493 kts 118°
2026-05-04 00:16 10.55815 87.83170 38863 ft 493 kts 118°
2026-05-04 00:17 10.52695 87.89380 38868 ft 493 kts 118°
2026-05-04 00:17 10.49577 87.95580 38868 ft 492 kts 118°
2026-05-04 00:18 10.46466 88.01767 38852 ft 491 kts 118°
2026-05-04 00:18 10.43363 88.07933 38859 ft 491 kts 118°
2026-05-04 00:19 10.40245 88.14117 38872 ft 492 kts 118°
2026-05-04 00:19 10.37128 88.20304 38867 ft 492 kts 118°
2026-05-04 00:20 10.34013 88.26483 38862 ft 491 kts 118°
2026-05-04 00:20 10.30896 88.32661 38863 ft 491 kts 118°
2026-05-04 00:21 10.27782 88.38829 38862 ft 491 kts 118°
2026-05-04 00:21 10.24663 88.45007 38865 ft 492 kts 118°
2026-05-04 00:22 10.21561 88.51147 38873 ft 492 kts 118°
2026-05-04 00:22 10.18523 88.57380 38874 ft 492 kts 115°
2026-05-04 00:23 10.15680 88.63708 38881 ft 493 kts 115°
2026-05-04 00:23 10.12809 88.70042 38884 ft 494 kts 116°
2026-05-04 00:24 10.09914 88.76358 38877 ft 493 kts 116°
2026-05-04 00:24 10.07026 88.82655 38869 ft 492 kts 116°
2026-05-04 00:25 10.04140 88.88940 38873 ft 491 kts 116°
2026-05-04 00:25 10.01257 88.95216 38862 ft 491 kts 116°
2026-05-04 00:26 9.98370 89.01493 38864 ft 491 kts 115°
2026-05-04 00:26 9.95487 89.07755 38873 ft 490 kts 115°
2026-05-04 00:27 9.92604 89.14024 38872 ft 490 kts 115°
2026-05-04 00:27 9.89722 89.20283 38865 ft 489 kts 115°
2026-05-04 00:28 9.86858 89.26498 38866 ft 489 kts 115°
2026-05-04 00:28 9.83979 89.32741 38870 ft 489 kts 115°
2026-05-04 00:29 9.81083 89.39021 38866 ft 489 kts 115°
2026-05-04 00:29 9.78225 89.45218 38860 ft 488 kts 116°
2026-05-04 00:30 9.75348 89.51452 38863 ft 488 kts 116°
2026-05-04 00:30 9.72460 89.57698 38869 ft 489 kts 116°
2026-05-04 00:31 9.69574 89.63937 38875 ft 489 kts 116°
2026-05-04 00:31 9.66687 89.70182 38875 ft 489 kts 116°
2026-05-04 00:32 9.63800 89.76420 38884 ft 490 kts 116°
2026-05-04 00:32 9.60906 89.82668 38885 ft 490 kts 116°
2026-05-04 00:33 9.56557 89.92049 38895 ft 491 kts 116°
2026-05-04 00:34 9.53656 89.98304 38888 ft 490 kts 116°
2026-05-04 00:34 9.50763 90.04540 38881 ft 489 kts 116°
2026-05-04 00:35 9.47885 90.10737 38881 ft 489 kts 116°
2026-05-04 00:35 9.44995 90.16960 38875 ft 488 kts 116°
2026-05-04 00:36 9.42575 90.22173 38873 ft 487 kts 116°
2026-05-04 00:36 9.39684 90.28385 38874 ft 488 kts 116°
2026-05-04 00:37 9.36806 90.34572 38874 ft 488 kts 116°
2026-05-04 00:37 9.33907 90.40798 38878 ft 489 kts 116°
2026-05-04 00:38 9.31009 90.47020 38879 ft 489 kts 116°
2026-05-04 00:38 9.28110 90.53241 38877 ft 489 kts 116°
2026-05-04 00:39 9.25205 90.59479 38880 ft 489 kts 116°
2026-05-04 00:39 9.22301 90.65699 38878 ft 489 kts 116°
2026-05-04 00:40 9.19392 90.71933 38882 ft 490 kts 116°
2026-05-04 00:40 9.16482 90.78165 38883 ft 489 kts 116°
2026-05-04 00:41 9.13573 90.84389 38881 ft 489 kts 116°
2026-05-04 00:41 9.10682 90.90570 38874 ft 489 kts 116°
2026-05-04 00:42 9.07770 90.96793 38888 ft 490 kts 116°
2026-05-04 00:42 9.04852 91.03030 38883 ft 490 kts 116°
2026-05-04 00:43 9.01942 91.09253 38879 ft 489 kts 116°
2026-05-04 00:43 8.99028 91.15471 38882 ft 489 kts 116°
2026-05-04 00:44 8.96111 91.21695 38877 ft 488 kts 116°
2026-05-04 00:44 8.93201 91.27897 38872 ft 488 kts 116°
2026-05-04 00:45 8.90287 91.34110 38875 ft 488 kts 116°
2026-05-04 00:45 8.87374 91.40317 38875 ft 489 kts 116°
2026-05-04 00:46 8.84458 91.46524 38877 ft 489 kts 116°
2026-05-04 00:46 8.81540 91.52735 38878 ft 489 kts 116°
2026-05-04 00:47 8.78624 91.58937 38875 ft 488 kts 116°
2026-05-04 00:47 8.75706 91.65142 38878 ft 489 kts 116°
2026-05-04 00:48 8.72805 91.71305 38881 ft 489 kts 116°
2026-05-04 00:48 8.69886 91.77506 38878 ft 489 kts 116°
2026-05-04 00:49 8.66962 91.83712 38879 ft 489 kts 116°
2026-05-04 00:49 8.64038 91.89915 38879 ft 489 kts 115°
2026-05-04 00:50 8.61117 91.96114 38880 ft 488 kts 115°
2026-05-04 00:50 8.58213 92.02323 38878 ft 488 kts 114°
2026-05-04 00:51 8.55457 92.08590 38874 ft 488 kts 114°
2026-05-04 00:51 8.52700 92.14875 38882 ft 489 kts 114°
2026-05-04 00:52 8.49931 92.21134 38883 ft 489 kts 114°
2026-05-04 00:52 8.47148 92.27410 38879 ft 488 kts 114°
2026-05-04 00:53 8.44371 92.33667 38880 ft 489 kts 114°
2026-05-04 00:53 8.41589 92.39935 38878 ft 489 kts 114°
2026-05-04 00:54 8.38809 92.46195 38884 ft 489 kts 114°
2026-05-04 00:54 8.36025 92.52460 38885 ft 489 kts 114°
2026-05-04 00:55 8.33240 92.58725 38880 ft 489 kts 114°
2026-05-04 00:55 8.30459 92.64978 38880 ft 488 kts 114°
2026-05-04 00:56 8.27701 92.71181 38867 ft 487 kts 114°
2026-05-04 00:56 8.24920 92.77429 38875 ft 487 kts 114°
2026-05-04 00:57 8.22139 92.83675 38877 ft 488 kts 114°
2026-05-04 00:57 8.19356 92.89917 38877 ft 487 kts 114°
2026-05-04 00:58 8.16576 92.96149 38873 ft 486 kts 114°
2026-05-04 00:58 8.13796 93.02377 38873 ft 487 kts 114°
2026-05-04 00:59 8.11021 93.08602 38875 ft 488 kts 114°
2026-05-04 00:59 8.08236 93.14847 38880 ft 488 kts 114°
2026-05-04 01:00 8.05445 93.21085 38884 ft 487 kts 114°
2026-05-04 01:00 8.02658 93.27320 38880 ft 487 kts 114°
2026-05-04 01:01 7.99887 93.33520 38881 ft 487 kts 114°
2026-05-04 01:01 7.97100 93.39751 38882 ft 487 kts 114°
2026-05-04 01:02 7.94316 93.45967 38871 ft 484 kts 114°
2026-05-04 01:02 7.91540 93.52175 38874 ft 486 kts 114°
2026-05-04 01:03 7.88774 93.58408 38883 ft 487 kts 114°
2026-05-04 01:03 7.86008 93.64648 38880 ft 487 kts 114°
2026-05-04 01:04 7.83243 93.70868 38882 ft 486 kts 114°
2026-05-04 01:04 7.80474 93.77098 38882 ft 486 kts 114°
2026-05-04 01:05 7.77707 93.83319 38888 ft 486 kts 114°
2026-05-04 01:05 7.74938 93.89539 38888 ft 486 kts 114°
2026-05-04 01:06 7.72173 93.95751 38885 ft 486 kts 114°
2026-05-04 01:06 7.69404 94.01966 38884 ft 486 kts 114°
2026-05-04 01:07 7.66634 94.08180 38887 ft 486 kts 114°
2026-05-04 01:07 7.63867 94.14390 38874 ft 486 kts 114°
2026-05-04 01:08 7.61110 94.20573 38886 ft 487 kts 114°
2026-05-04 01:08 7.58336 94.26793 38889 ft 486 kts 114°
2026-05-04 01:09 7.55556 94.33017 38891 ft 487 kts 114°
2026-05-04 01:09 7.52776 94.39250 38896 ft 487 kts 114°
2026-05-04 01:10 7.49928 94.45466 38896 ft 488 kts 116°
2026-05-04 01:10 7.46911 94.51582 38894 ft 487 kts 116°
2026-05-04 01:11 7.43912 94.57696 38884 ft 486 kts 116°
2026-05-04 01:11 7.40935 94.63826 38879 ft 486 kts 116°
2026-05-04 01:12 7.37962 94.69944 38883 ft 487 kts 116°
2026-05-04 01:12 7.34981 94.76072 38877 ft 486 kts 116°
2026-05-04 01:13 7.32007 94.82186 38879 ft 486 kts 116°
2026-05-04 01:13 7.29026 94.88314 38884 ft 487 kts 116°
2026-05-04 01:14 7.26047 94.94439 38884 ft 488 kts 116°
2026-05-04 01:14 7.23080 95.00533 38887 ft 488 kts 116°
2026-05-04 01:15 7.20065 95.06720 38894 ft 490 kts 116°
2026-05-04 01:15 7.17085 95.12832 38899 ft 490 kts 116°
2026-05-04 01:16 7.14080 95.18993 38903 ft 489 kts 116°
2026-05-04 01:16 7.11085 95.25139 38898 ft 489 kts 116°
2026-05-04 01:17 7.08085 95.31289 38892 ft 489 kts 116°
2026-05-04 01:17 7.05081 95.37444 38898 ft 489 kts 116°
2026-05-04 01:18 7.02080 95.43588 38893 ft 489 kts 116°
2026-05-04 01:18 6.99085 95.49722 38887 ft 487 kts 116°
2026-05-04 01:19 6.96087 95.55857 38889 ft 487 kts 116°
2026-05-04 01:19 6.93087 95.61990 38894 ft 488 kts 116°
2026-05-04 01:20 6.90596 95.67086 38892 ft 488 kts 116°
2026-05-04 01:20 6.87599 95.73208 38889 ft 487 kts 116°
2026-05-04 01:21 6.84596 95.79346 38893 ft 488 kts 116°
2026-05-04 01:21 6.81599 95.85466 38891 ft 488 kts 116°
2026-05-04 01:22 6.78603 95.91592 38894 ft 488 kts 116°
2026-05-04 01:22 6.75604 95.97710 38895 ft 488 kts 116°
2026-05-04 01:23 6.72604 96.03833 38888 ft 488 kts 116°
2026-05-04 01:23 6.69604 96.09951 38892 ft 488 kts 116°
2026-05-04 01:24 6.66606 96.16069 38893 ft 488 kts 116°
2026-05-04 01:24 6.63631 96.22132 38879 ft 486 kts 116°
2026-05-04 01:25 6.60620 96.28267 38878 ft 486 kts 116°
2026-05-04 01:25 6.57629 96.34360 38876 ft 486 kts 116°
2026-05-04 01:26 6.54641 96.40447 38886 ft 486 kts 116°
2026-05-04 01:26 6.51650 96.46552 38892 ft 486 kts 115°
2026-05-04 01:27 6.49273 96.52859 38888 ft 486 kts 105°
2026-05-04 01:27 6.47388 96.59385 38892 ft 486 kts 106°
2026-05-04 01:28 6.45472 96.65902 38887 ft 487 kts 106°
2026-05-04 01:28 6.43556 96.72438 38892 ft 487 kts 106°
2026-05-04 01:29 6.41642 96.78961 38894 ft 487 kts 106°
2026-05-04 01:29 6.39722 96.85501 38894 ft 487 kts 106°
2026-05-04 01:30 6.37804 96.92032 38897 ft 487 kts 106°
2026-05-04 01:30 6.35879 96.98577 38898 ft 488 kts 106°
2026-05-04 01:31 6.33959 97.05118 38895 ft 488 kts 106°
2026-05-04 01:31 6.32034 97.11671 38899 ft 488 kts 106°
2026-05-04 01:32 6.30110 97.18216 38900 ft 488 kts 106°
2026-05-04 01:32 6.28184 97.24762 38892 ft 489 kts 106°
2026-05-04 01:33 6.26254 97.31311 38893 ft 488 kts 106°
2026-05-04 01:33 6.24323 97.37863 38896 ft 489 kts 106°
2026-05-04 01:34 6.22390 97.44415 38897 ft 489 kts 107°
2026-05-04 01:34 6.20454 97.50982 38900 ft 490 kts 107°
2026-05-04 01:35 6.17964 97.57339 38900 ft 489 kts 117°
2026-05-04 01:35 6.14313 97.63044 38904 ft 489 kts 129°
2026-05-04 01:36 6.09867 97.68221 38903 ft 489 kts 131°
2026-05-04 01:36 6.05411 97.73404 38907 ft 490 kts 131°
2026-05-04 01:37 6.00949 97.78584 38907 ft 490 kts 131°
2026-05-04 01:37 5.96481 97.83763 38907 ft 490 kts 131°
2026-05-04 01:38 5.92017 97.88936 38906 ft 490 kts 131°
2026-05-04 01:38 5.87552 97.94115 38907 ft 491 kts 131°
2026-05-04 01:39 5.83087 97.99295 38911 ft 490 kts 131°
2026-05-04 01:39 5.78590 98.04500 38938 ft 493 kts 131°
2026-05-04 01:40 5.74095 98.09692 38927 ft 492 kts 131°
2026-05-04 01:40 5.69607 98.14881 38915 ft 493 kts 131°
2026-05-04 01:41 5.65125 98.20070 38913 ft 491 kts 131°
2026-05-04 01:41 5.60643 98.25250 38926 ft 491 kts 131°
2026-05-04 01:42 5.56167 98.30426 38923 ft 490 kts 131°
2026-05-04 01:42 5.51700 98.35592 38910 ft 489 kts 131°
2026-05-04 01:43 5.47248 98.40731 38910 ft 487 kts 131°
2026-05-04 01:43 5.42806 98.45866 38913 ft 487 kts 131°
2026-05-04 01:44 5.38359 98.51008 38930 ft 487 kts 131°
2026-05-04 01:44 5.33950 98.56101 38909 ft 486 kts 131°
2026-05-04 01:45 5.29511 98.61226 38907 ft 486 kts 131°
2026-05-04 01:45 5.22851 98.68914 38904 ft 487 kts 130°
2026-05-04 01:46 5.18404 98.74048 38911 ft 487 kts 131°
2026-05-04 01:46 5.13953 98.79177 38908 ft 488 kts 131°
2026-05-04 01:47 5.09502 98.84314 38929 ft 488 kts 131°
2026-05-04 01:47 5.05045 98.89456 38913 ft 487 kts 131°
2026-05-04 01:48 5.00624 98.94551 38915 ft 487 kts 131°
2026-05-04 01:48 4.96175 98.99681 38925 ft 487 kts 131°
2026-05-04 01:49 4.91723 99.04811 38934 ft 486 kts 131°
2026-05-04 01:49 4.87280 99.09932 38937 ft 487 kts 131°
2026-05-04 01:50 4.82832 99.15053 38927 ft 486 kts 131°
2026-05-04 01:50 4.78381 99.20174 38923 ft 488 kts 131°
2026-05-04 01:51 4.73924 99.25304 38912 ft 487 kts 131°
2026-05-04 01:51 4.69482 99.30420 38917 ft 487 kts 131°
2026-05-04 01:52 4.65036 99.35538 38911 ft 487 kts 131°
2026-05-04 01:52 4.60600 99.40646 38912 ft 485 kts 131°
2026-05-04 01:53 4.56163 99.45749 38909 ft 485 kts 131°
2026-05-04 01:53 4.51842 99.50947 38929 ft 487 kts 126°
2026-05-04 01:54 4.48323 99.56733 38923 ft 486 kts 116°
2026-05-04 01:54 4.45608 99.62909 38934 ft 488 kts 113°
2026-05-04 01:55 4.42934 99.69151 38930 ft 488 kts 113°
2026-05-04 01:55 4.40257 99.75410 38937 ft 488 kts 113°
2026-05-04 01:56 4.37578 99.81662 38932 ft 488 kts 113°
2026-05-04 01:56 4.34897 99.87914 38931 ft 488 kts 113°
2026-05-04 01:57 4.32218 99.94176 38933 ft 488 kts 113°
2026-05-04 01:57 4.29544 100.00425 38934 ft 488 kts 113°
2026-05-04 01:58 4.26868 100.06673 38931 ft 487 kts 113°
2026-05-04 01:58 4.24198 100.12910 38911 ft 486 kts 113°
2026-05-04 01:59 4.21547 100.19091 38911 ft 487 kts 113°
2026-05-04 01:59 4.18873 100.25326 38906 ft 486 kts 113°
2026-05-04 02:00 4.16207 100.31544 38912 ft 487 kts 113°
2026-05-04 02:00 4.13531 100.37778 38914 ft 487 kts 113°
2026-05-04 02:01 4.10858 100.44014 38907 ft 486 kts 113°
2026-05-04 02:01 4.08187 100.50235 38903 ft 485 kts 113°
2026-05-04 02:02 4.05519 100.56452 38903 ft 486 kts 113°
2026-05-04 02:02 4.02855 100.62663 38899 ft 486 kts 113°
2026-05-04 02:03 4.00184 100.68883 38707 ft 482 kts 113°
2026-05-04 02:03 3.98865 100.71956 38429 ft 479 kts 113°
2026-05-04 02:03 3.97553 100.75014 38050 ft 479 kts 113°
2026-05-04 02:04 3.96239 100.78074 37677 ft 478 kts 113°
2026-05-04 02:04 3.94922 100.81142 37216 ft 479 kts 113°
2026-05-04 02:04 3.94050 100.83165 36886 ft 479 kts 113°
2026-05-04 02:04 3.92732 100.86228 36392 ft 479 kts 113°
2026-05-04 02:05 3.91411 100.89301 35892 ft 480 kts 113°
2026-05-04 02:05 3.89638 100.93428 35223 ft 485 kts 113°
2026-05-04 02:05 3.88751 100.95493 34884 ft 488 kts 113°
2026-05-04 02:05 3.87404 100.98625 34216 ft 491 kts 113°
2026-05-04 02:06 3.86050 101.01768 33454 ft 492 kts 113°
2026-05-04 02:06 3.84699 101.04909 32701 ft 490 kts 113°
2026-05-04 02:06 3.83352 101.08043 31956 ft 489 kts 113°
2026-05-04 02:06 3.82014 101.11159 31206 ft 487 kts 113°
2026-05-04 02:07 3.80679 101.14265 30462 ft 484 kts 113°
2026-05-04 02:07 3.79351 101.17351 29717 ft 480 kts 113°
2026-05-04 02:07 3.77919 101.20342 28984 ft 477 kts 121°
2026-05-04 02:07 3.75982 101.23027 28214 ft 473 kts 131°
2026-05-04 02:08 3.73632 101.25269 27522 ft 470 kts 142°
2026-05-04 02:08 3.70980 101.27145 26896 ft 464 kts 145°
2026-05-04 02:08 3.68347 101.28980 26276 ft 458 kts 144°
2026-05-04 02:08 3.65759 101.30803 25652 ft 452 kts 144°
2026-05-04 02:09 3.63202 101.32606 25029 ft 448 kts 144°
2026-05-04 02:09 3.60666 101.34392 24403 ft 443 kts 144°
2026-05-04 02:09 3.58158 101.36156 23801 ft 438 kts 144°
2026-05-04 02:09 3.55678 101.37898 23242 ft 433 kts 144°
2026-05-04 02:10 3.53234 101.39613 22706 ft 426 kts 144°
2026-05-04 02:10 3.50821 101.41308 22164 ft 420 kts 144°
2026-05-04 02:10 3.48451 101.42973 21668 ft 413 kts 144°
2026-05-04 02:10 3.46114 101.44615 21169 ft 408 kts 144°
2026-05-04 02:11 3.43802 101.46237 20668 ft 403 kts 144°
2026-05-04 02:11 3.41524 101.47837 20169 ft 398 kts 144°
2026-05-04 02:11 3.39271 101.49419 19669 ft 393 kts 144°
2026-05-04 02:11 3.37038 101.50986 19173 ft 391 kts 144°
2026-05-04 02:12 3.34824 101.52540 18721 ft 386 kts 144°
2026-05-04 02:12 3.32630 101.54080 18344 ft 384 kts 144°
2026-05-04 02:12 3.30466 101.55599 17971 ft 383 kts 144°
2026-05-04 02:12 3.28294 101.57124 17599 ft 380 kts 144°
2026-05-04 02:13 3.26133 101.58641 17212 ft 379 kts 144°
2026-05-04 02:13 3.23979 101.60153 16848 ft 377 kts 144°
2026-05-04 02:13 3.21842 101.61652 16479 ft 375 kts 144°
2026-05-04 02:13 3.19713 101.63147 16109 ft 373 kts 144°
2026-05-04 02:14 3.17590 101.64636 15725 ft 371 kts 144°
2026-05-04 02:14 3.15482 101.66115 15356 ft 369 kts 144°
2026-05-04 02:14 3.13390 101.67582 15056 ft 366 kts 144°
2026-05-04 02:14 3.11300 101.69049 14797 ft 366 kts 144°
2026-05-04 02:15 3.09216 101.70512 14544 ft 365 kts 144°
2026-05-04 02:15 3.07138 101.71970 14298 ft 364 kts 144°
2026-05-04 02:15 3.05069 101.73421 14039 ft 363 kts 144°
2026-05-04 02:15 3.03003 101.74870 13794 ft 361 kts 144°
2026-05-04 02:16 3.00947 101.76311 13541 ft 361 kts 144°
2026-05-04 02:16 2.98897 101.77747 13288 ft 355 kts 144°
2026-05-04 02:16 2.96907 101.79143 13025 ft 344 kts 144°
2026-05-04 02:16 2.94995 101.80484 12791 ft 335 kts 144°
2026-05-04 02:17 2.93113 101.81804 12552 ft 326 kts 144°
2026-05-04 02:17 2.91276 101.83092 12319 ft 318 kts 144°
2026-05-04 02:17 2.89488 101.84349 12084 ft 310 kts 144°
2026-05-04 02:17 2.87745 101.85571 11833 ft 303 kts 144°
2026-05-04 02:18 2.85980 101.86679 11579 ft 297 kts 153°
2026-05-04 02:18 2.84083 101.87450 11327 ft 291 kts 163°
2026-05-04 02:18 2.82156 101.88007 11076 ft 286 kts 163°
2026-05-04 02:18 2.80265 101.88575 10808 ft 282 kts 162°
2026-05-04 02:19 2.78399 101.89147 10507 ft 279 kts 162°
2026-05-04 02:19 2.76548 101.89717 10205 ft 277 kts 162°
2026-05-04 02:19 2.74707 101.90282 9905 ft 276 kts 163°
2026-05-04 02:19 2.72881 101.90841 9601 ft 275 kts 163°
2026-05-04 02:20 2.71053 101.91399 9304 ft 273 kts 163°
2026-05-04 02:20 2.69232 101.91956 9019 ft 272 kts 163°
2026-05-04 02:20 2.67414 101.92512 8714 ft 272 kts 163°
2026-05-04 02:20 2.65604 101.93063 8456 ft 271 kts 163°
2026-05-04 02:21 2.63804 101.93612 8213 ft 269 kts 163°
2026-05-04 02:21 2.62017 101.94158 7971 ft 268 kts 163°
2026-05-04 02:21 2.60243 101.94700 7712 ft 265 kts 163°
2026-05-04 02:21 2.58491 101.95235 7459 ft 262 kts 163°
2026-05-04 02:22 2.56754 101.95763 7210 ft 259 kts 163°
2026-05-04 02:22 2.55031 101.96286 6942 ft 258 kts 166°
2026-05-04 02:22 2.53262 101.96326 6697 ft 256 kts 195°
2026-05-04 02:22 2.51717 101.95514 6523 ft 251 kts 224°
2026-05-04 02:23 2.50674 101.94143 6352 ft 245 kts 238°
2026-05-04 02:23 2.49820 101.92712 6158 ft 241 kts 239°
2026-05-04 02:23 2.48965 101.91282 5948 ft 237 kts 238°
2026-05-04 02:23 2.48143 101.89877 5687 ft 231 kts 251°
2026-05-04 02:24 2.48112 101.88320 5466 ft 227 kts 290°
2026-05-04 02:24 2.48943 101.87032 5226 ft 213 kts 314°
2026-05-04 02:24 2.50035 101.86088 4948 ft 204 kts 323°
2026-05-04 02:24 2.51190 101.85276 4693 ft 203 kts 326°
2026-05-04 02:25 2.52365 101.84491 4438 ft 203 kts 326°
2026-05-04 02:25 2.53536 101.83707 4172 ft 203 kts 326°
2026-05-04 02:25 2.54699 101.82929 3913 ft 202 kts 326°
2026-05-04 02:25 2.55867 101.82148 3644 ft 200 kts 326°
2026-05-04 02:26 2.57022 101.81371 3381 ft 199 kts 326°
2026-05-04 02:26 2.58171 101.80606 3117 ft 199 kts 326°
2026-05-04 02:26 2.59314 101.79836 2858 ft 197 kts 326°
2026-05-04 02:26 2.60459 101.79075 2593 ft 197 kts 326°
2026-05-04 02:27 2.61592 101.78310 2337 ft 196 kts 326°
2026-05-04 02:27 2.62706 101.77578 2082 ft 185 kts 326°
2026-05-04 02:27 2.63697 101.76906 1846 ft 160 kts 326°
2026-05-04 02:27 2.64582 101.76318 1639 ft 148 kts 326°
2026-05-04 02:28 2.65430 101.75751 1445 ft 144 kts 326°
2026-05-04 02:28 2.66259 101.75189 1256 ft 146 kts 326°
2026-05-04 02:28 2.67106 101.74628 1061 ft 144 kts 326°
2026-05-04 02:28 2.67931 101.74083 874 ft 146 kts 327°
2026-05-04 02:29 2.68764 101.73531 718 ft 145 kts 326°
2026-05-04 02:29 2.69587 101.72974 540 ft 143 kts 325°
2026-05-04 02:29 2.70411 101.72413 327 ft 144 kts 326°
2026-05-04 02:29 2.71237 101.71864 137 ft 142 kts 326°
2026-05-04 02:30 2.72030 101.71334 66 ft 123 kts 326°
2026-05-04 02:30 2.72627 101.70934 59 ft 86 kts 326°
2026-05-04 02:30 2.73019 101.70671 64 ft 44 kts 326°
2026-05-04 02:30 2.73193 101.70551 74 ft 27 kts 326°
2026-05-04 02:31 2.73365 101.70481 74 ft 26 kts 346°
2026-05-04 02:31 2.73539 101.70461 74 ft 24 kts 355°
2026-05-04 02:31 2.73686 101.70445 82 ft 17 kts 340°
2026-05-04 02:31 2.73799 101.70379 75 ft 18 kts 327°
2026-05-04 02:32 2.73897 101.70316 71 ft 19 kts 326°
2026-05-04 02:32 2.74017 101.70234 62 ft 19 kts 326°
2026-05-04 02:32 2.74113 101.70169 65 ft 17 kts 326°
2026-05-04 02:32 2.74219 101.70097 71 ft 20 kts 326°
2026-05-04 02:33 2.74297 101.70045 68 ft 12 kts 326°
2026-05-04 02:33 2.74377 101.70005 71 ft 12 kts
2026-05-04 02:33 2.74443 101.70068 65 ft 16 kts 55°
2026-05-04 02:33 2.74503 101.70155 68 ft 11 kts 55°
2026-05-04 02:34 2.74553 101.70227 67 ft 15 kts 56°
2026-05-04 02:34 2.74617 101.70323 69 ft 18 kts 56°
2026-05-04 02:34 2.74671 101.70404 68 ft 14 kts 57°
2026-05-04 02:34 2.74724 101.70487 72 ft 13 kts 57°
2026-05-04 02:35 2.74775 101.70563 70 ft 13 kts 56°
2026-05-04 02:35 2.74824 101.70637 73 ft 11 kts 56°
2026-05-04 02:35 2.74873 101.70709 71 ft 11 kts 56°
2026-05-04 02:35 2.74921 101.70779 73 ft 14 kts 54°
2026-05-04 02:36 2.74968 101.70846 72 ft 10 kts 53°
2026-05-04 02:36 2.75011 101.70904 79 ft 7 kts 55°
2026-05-04 02:36 2.75038 101.70944 82 ft 8 kts 56°
2026-05-04 02:36 2.75071 101.70992 81 ft 6 kts 56°
2026-05-04 02:37 2.75093 101.71025 85 ft 6 kts 56°
2026-05-04 02:37 2.75116 101.71058 81 ft 6 kts 56°
2026-05-04 02:37 2.75128 101.71083 81 ft 2 kts 92°
2026-05-04 02:37 2.75125 101.71096 83 ft 3 kts 121°
2026-05-04 02:38 2.75108 101.71113 85 ft 1 kts 143°
2026-05-04 02:38 2.75091 101.71126 82 ft 3 kts 142°
2026-05-04 02:38 2.75077 101.71137 83 ft 3 kts 145°
2026-05-04 02:38 2.75064 101.71146 81 ft 3 kts 145°
2026-05-04 02:39 2.75060 101.71148 81 ft 0 kts 145°